Location: Newark
(26.0814°N, 97.8289°W)
Time: 21:04:55
(UTC+00:00)

LightSail 2 - Pass Details

Date: 31 January 2020
Orbit: 699 x 722 km, 24.0° (Epoch: 22 February)

Event Time Altitude Azimuth Distance (km) Brightness Sun altitude
Rises 01:55:53 0° 257° (WSW) 3,070 9.9 -23.2°
Reaches altitude 10° 01:59:57 10° 226° (SW) 2,156 8.3 -24.1°
Maximum altitude 02:01:44 12° 205° (SSW) 2,040 7.9 -24.5°
Drops below altitude 10° 02:03:31 10° 184° (S) 2,160 7.8 -24.9°
Enters shadow 02:05:35 - 166° (SSE) 2,542 7.9 -25.4°
